COSMOS 2494 (SKRL-756 2)

Last updated on Wed Sep 09 2026 00:03:47 GMT+0000 (Coordinated Universal Time)

1 39491U 13078B 26251.58647141 .00003468 00000+0 24016-3 0 9993 2 39491 82.4151 168.6184 0014483 284.3168 75.6450 15.05295291691355
UTC large
Height (km)
Speed (km/s)
/
Latitude / Longitude
Inclination (degrees)
Orbital Period (minutes)
Azimuth
Elevation
Range (km)
Doppler Factor

Next 0 passes for location: London (51.5072 / 0.1276)

No passes found over London.
COSMOS 2494 (SKRL-756 2)